Home > Products > State Listing > Delaware Data
Latest:
 RWRPHI |
  [top]

000
ASUS41 KPHI 271312
RWRPHI

REGIONAL WEATHER ROUNDUP
NATIONAL WEATHER SERVICE MOUNT HOLLY NJ
900 AM EDT FRI MAY 27 2016

NOTE:  "FAIR" INDICATES FEW OR NO CLOUDS BELOW 12,000 FEET WITH NO
SIGNIFICANT WEATHER AND/OR OBSTRUCTIONS TO VISIBILITY.

 * = STATION DOES NOT REPORT PRECIPITATION (E.G. RAIN, SNOW, ETC.)
        OR FOG.

NJZ015>026-271400-
SOUTHERN NEW JERSEY

CITY           SKY/WX    TMP DP  RH WIND       PRES   REMARKS
POMONA         SUNNY     77  66  68 SW9       30.09S
WILDWOOD*      SUNNY    N/A N/A N/A SW7       30.10S
MILLVILLE      SUNNY     76  66  71 VRB6      30.09S
WRIGHTSTOWN    SUNNY     76  67  72 SW7       30.05F
MOUNT HOLLY    SUNNY     76  66  71 VRB5      30.07F
TRENTON        SUNNY     76  65  68 SW8       30.06F

$$
NJZ001>014-271400-
NORTHERN NEW JERSEY

CITY           SKY/WX    TMP DP  RH WIND       PRES   REMARKS
SUSSEX         CLOUDY    72  66  81 CALM      30.06S
ANDOVER*         N/A     72  67  84 CALM      30.07S
MORRISTOWN     PTSUNNY   75  66  73 SW3       30.07F
NEWARK         PTSUNNY   76  63  64 VRB5      30.06S
TETERBORO      CLOUDY    76  60  57 S8        30.06R
CALDWELL       MOSUNNY   76  63  64 S5        30.06F
SOMERVILLE     CLOUDY    75  65  70 CALM      30.04F
ALLAIRE*       MOSUNNY   76  66  71 SW7       30.09S
TOMS RIVER*    SUNNY     79  63  57 SW8       30.08F

$$
PAZ043-044-047-054-055-060>062-066>071-271400-
EASTERN PENNSYLVANIA

CITY           SKY/WX    TMP DP  RH WIND       PRES   REMARKS
PHILADELPHIA   MOSUNNY   77  65  66 SW9       30.07F
NORTH PHILA    SUNNY     78  66  66 S6        30.08F
BLUE BELL*     SUNNY     75  64  69 SW6       30.06F
DOYLESTOWN     SUNNY     74  64  71 SW5       30.07S
QUAKERTOWN*    SUNNY     75  66  73 SW5       30.08S
PERKASIE*      FAIR      75  66  73 SW3       30.09R
POTTSTOWN      SUNNY     75  65  70 S6        30.08S
LANCASTER      SUNNY     76  66  71 VRB3      30.07R
COATESVILLE    SUNNY     75  66  73 VRB6      30.10R
READING        SUNNY     77  64  64 CALM      30.06S
ALLENTOWN      SUNNY     75  67  76 CALM      30.07R
MOUNT POCONO   CLOUDY    68  62  81 W7        30.11S
HAZLETON       SUNNY     75  64  69 CALM      30.13S
LEHIGHTON      FAIR      70  66  88 CALM      30.08S
WILKES BARRE   MOSUNNY   76  65  68 W5        30.07S

$$
DEZALL-MDZ008-012-015-019-020-271400-
DELAWARE AND EASTERN MARYLAND

CITY           SKY/WX    TMP DP  RH WIND       PRES   REMARKS
WILMINGTON     SUNNY     76  66  71 SW8       30.08S
DOVER          MOSUNNY   77  70  78 SW10      30.08S
GEORGETOWN     SUNNY     76  65  68 SW9       30.11S
EASTON         SUNNY     77  72  83 SW9       30.13R
ABERDEEN       MOSUNNY   77  66  69 S9        30.08S
PATUXENT       MOSUNNY   75  64  68 SW15      30.09R
OCEAN CITY     MOSUNNY   75  63  66 SW10      30.12R
WALLOPS ISLAND FAIR      75  66  73 S8        30.13R
CAMBRIDGE      SUNNY     73  64  73 SW5       30.10R
SALISBURY      SUNNY     76  64  66 SW14      30.11S

$$
PAZ001-021-NYZ056-072-MDZ011-DCZ001-271400-
OTHER NEARBY LOCATIONS

CITY           SKY/WX    TMP DP  RH WIND       PRES   REMARKS
HARRISBURG     MOSUNNY   76  66  71 W5        30.06S
STATE COLLEGE  MOSUNNY   73  66  78 SW6       30.09F
WILLIAMSPORT   CLOUDY    71  62  73 SW3       30.06S
BINGHAMTON     MOSUNNY   71  63  75 VRB6      30.08S
NEW YORK CITY  MOSUNNY   76  61  59 CALM      30.09S
BALTIMORE      MOSUNNY   78  65  63 SW7       30.07S
WASHINGTON DC  FAIR      75  66  73 S8        30.09S

$$





000
ASUS41 KPHI 271212
RWRPHI

REGIONAL WEATHER ROUNDUP
NATIONAL WEATHER SERVICE MOUNT HOLLY NJ
800 AM EDT FRI MAY 27 2016

NOTE:  "FAIR" INDICATES FEW OR NO CLOUDS BELOW 12,000 FEET WITH NO
SIGNIFICANT WEATHER AND/OR OBSTRUCTIONS TO VISIBILITY.

 * = STATION DOES NOT REPORT PRECIPITATION (E.G. RAIN, SNOW, ETC.)
        OR FOG.

NJZ015>026-271300-
SOUTHERN NEW JERSEY

CITY           SKY/WX    TMP DP  RH WIND       PRES   REMARKS
POMONA         SUNNY     72  64  76 SW6       30.09R
6HR MIN TEMP:  66; 6HR MAX TEMP:  72;

WILDWOOD*      SUNNY    N/A N/A N/A S8        30.10S
MILLVILLE      SUNNY     73  65  75 VRB3      30.09R
WRIGHTSTOWN    SUNNY     72  65  79 SW8       30.06S
MOUNT HOLLY    SUNNY     72  65  78 VRB3      30.08R
TRENTON        SUNNY     71  64  78 S5        30.07S
6HR MIN TEMP:  66; 6HR MAX TEMP:  71;


$$
NJZ001>014-271300-
NORTHERN NEW JERSEY

CITY           SKY/WX    TMP DP  RH WIND       PRES   REMARKS
SUSSEX         CLOUDY    68  65  90 S3        30.06S
ANDOVER*         N/A     70  66  87 CALM      30.07S
MORRISTOWN     CLOUDY    68  66  94 CALM      30.08R
NEWARK         CLOUDY    73  62  68 S5        30.06R
TETERBORO      CLOUDY    75  60  59 SW6       30.05R
CALDWELL       CLOUDY    70  62  76 CALM      30.07R
SOMERVILLE     MOSUNNY   71  63  75 CALM      30.05S
ALLAIRE*       CLOUDY    71  64  78 S5        30.09S
TOMS RIVER*    SUNNY     73  63  68 SW3       30.09S

$$
PAZ043-044-047-054-055-060>062-066>071-271300-
EASTERN PENNSYLVANIA

CITY           SKY/WX    TMP DP  RH WIND       PRES   REMARKS
PHILADELPHIA   MOSUNNY   73  64  73 SW9       30.08R
6HR MIN TEMP:  69; 6HR MAX TEMP:  73;

NORTH PHILA    SUNNY     76  65  68 SW5       30.09R
BLUE BELL*     SUNNY     72  64  78 SW6       30.07F
DOYLESTOWN     SUNNY     71  63  75 VRB5      30.07S
QUAKERTOWN*    CLOUDY    73  64  73 SW7       30.08F
PERKASIE*      FAIR      72  64  78 S3        30.09S
POTTSTOWN      SUNNY     72  64  76 VRB5      30.08F
LANCASTER      SUNNY     72  65  78 CALM      30.06F HAZE
COATESVILLE    SUNNY     72  64  78 VRB5      30.10F
READING        SUNNY     75  65  70 S3        30.06S
6HR MIN TEMP:  68; 6HR MAX TEMP:  75;

ALLENTOWN      MOSUNNY   71  67  87 CALM      30.06F FOG
6HR MIN TEMP:  66; 6HR MAX TEMP:  71; 6HR PCP:  0.14;

MOUNT POCONO   CLOUDY    66  61  84 W6        30.11F
6HR MIN TEMP:  58; 6HR MAX TEMP:  66; 6HR PCP: TRACE;

HAZLETON       CLOUDY    70  63  78 CALM      30.13S
LEHIGHTON      FAIR      66  66 100 CALM      30.08S FOG
WILKES BARRE   CLOUDY    73  64  73 SW6       30.07S

$$
DEZALL-MDZ008-012-015-019-020-271300-
DELAWARE AND EASTERN MARYLAND

CITY           SKY/WX    TMP DP  RH WIND       PRES   REMARKS
WILMINGTON     SUNNY     73  66  78 SW8       30.08S
6HR MIN TEMP:  67; 6HR MAX TEMP:  73;

DOVER          SUNNY     73  70  89 SW10      30.08R
GEORGETOWN     SUNNY     73  64  73 SW10      30.11R
6HR MIN TEMP:  68; 6HR MAX TEMP:  73;

EASTON         SUNNY     75  70  83 SW9       30.12S
ABERDEEN       MOSUNNY   75  68  78 S7        30.08R
PATUXENT       MOSUNNY   73  63  70 SW12      30.08S
OCEAN CITY     SUNNY     69  64  84 S5        30.11R
WALLOPS ISLAND FAIR      72  64  76 SW6       30.12S
CAMBRIDGE      SUNNY     72  64  78 S5        30.09S
SALISBURY      SUNNY     72  63  73 SW10      30.11R

$$
PAZ001-021-NYZ056-072-MDZ011-DCZ001-271300-
OTHER NEARBY LOCATIONS

CITY           SKY/WX    TMP DP  RH WIND       PRES   REMARKS
HARRISBURG     SUNNY     73  66  78 CALM      30.06S HAZE
STATE COLLEGE  MOSUNNY   68  64  88 CALM      30.11R
WILLIAMSPORT   PTSUNNY   67  61  81 CALM      30.06R
BINGHAMTON     CLOUDY    68  61  78 SW3       30.08R
NEW YORK CITY  CLOUDY    75  61  61 CALM      30.09R
BALTIMORE      MOSUNNY   74  65  73 SW8       30.07F
WASHINGTON DC  FAIR      73  66  78 S8        30.09S

$$





000
ASUS41 KPHI 271112
RWRPHI

REGIONAL WEATHER ROUNDUP
NATIONAL WEATHER SERVICE MOUNT HOLLY NJ
700 AM EDT FRI MAY 27 2016

NOTE:  "FAIR" INDICATES FEW OR NO CLOUDS BELOW 12,000 FEET WITH NO
SIGNIFICANT WEATHER AND/OR OBSTRUCTIONS TO VISIBILITY.

 * = STATION DOES NOT REPORT PRECIPITATION (E.G. RAIN, SNOW, ETC.)
        OR FOG.

NJZ015>026-271200-
SOUTHERN NEW JERSEY

CITY           SKY/WX    TMP DP  RH WIND       PRES   REMARKS
POMONA         MOSUNNY   69  63  81 S7        30.08F
WILDWOOD*      SUNNY    N/A N/A N/A S8        30.09S
MILLVILLE      MOSUNNY   70  64  81 CALM      30.08S
WRIGHTSTOWN    SUNNY     65  63  91 SE2       30.06R
MOUNT HOLLY    SUNNY     68  63  84 CALM      30.07R
TRENTON        SUNNY     68  61  78 SW3       30.07R

$$
NJZ001>014-271200-
NORTHERN NEW JERSEY

CITY           SKY/WX    TMP DP  RH WIND       PRES   REMARKS
SUSSEX         CLOUDY    67  64  90 CALM      30.06R
ANDOVER*         N/A     67  65  93 CALM      30.07R
MORRISTOWN     CLOUDY    66  63  88 CALM      30.06S
NEWARK         CLOUDY    72  61  68 VRB3      30.05F
TETERBORO      PTSUNNY   73  58  59 S3        30.04F
CALDWELL       CLOUDY    69  63  81 W3        30.06S
SOMERVILLE     PTSUNNY   66  63  90 CALM      30.05R FOG
ALLAIRE*       CLOUDY    69  63  81 SE3       30.09S
TOMS RIVER*    SUNNY     66  61  82 N3        30.09R

$$
PAZ043-044-047-054-055-060>062-066>071-271200-
EASTERN PENNSYLVANIA

CITY           SKY/WX    TMP DP  RH WIND       PRES   REMARKS
PHILADELPHIA   MOSUNNY   71  63  75 S5        30.07R
NORTH PHILA    SUNNY     72  64  76 CALM      30.08R
BLUE BELL*     SUNNY     68  63  83 CALM      30.08R
DOYLESTOWN     SUNNY     67  60  78 S3        30.07R
QUAKERTOWN*    SUNNY     66  66 100 CALM      30.09R
PERKASIE*      FAIR      68  64  88 S3        30.09R
POTTSTOWN      SUNNY     71  64  78 CALM      30.09R
LANCASTER      CLOUDY    66  63  90 CALM      30.07R FOG
COATESVILLE    SUNNY     70  64  83 CALM      30.10R
READING        CLOUDY    70  65  84 CALM      30.06R
ALLENTOWN      CLOUDY    69  67  93 CALM      30.07R FOG
MOUNT POCONO   CLOUDY    63  61  93 W3        30.12R
HAZLETON       CLOUDY    68  63  83 CALM      30.14R
LEHIGHTON      PTSUNNY   64  64 100 CALM      30.08S FOG
WILKES BARRE   CLOUDY    70  64  81 CALM      30.07R

$$
DEZALL-MDZ008-012-015-019-020-271200-
DELAWARE AND EASTERN MARYLAND

CITY           SKY/WX    TMP DP  RH WIND       PRES   REMARKS
WILMINGTON     SUNNY     70  65  84 CALM      30.08R
DOVER          SUNNY     72  70  96 S10       30.06S
GEORGETOWN     SUNNY     70  64  81 S8        30.10S
EASTON         SUNNY     73  70  88 S7        30.12R
ABERDEEN       MOSUNNY   70  61  73 CALM      30.07R
PATUXENT       MOSUNNY   71  63  75 SW14      30.08R
OCEAN CITY     SUNNY     65  63  93 S6        30.10F
WALLOPS ISLAND FAIR      68  64  87 S6        30.12F
CAMBRIDGE      SUNNY     70  64  83 S6        30.09R
SALISBURY      SUNNY     69  63  81 SW8       30.10S

$$
PAZ001-021-NYZ056-072-MDZ011-DCZ001-271200-
OTHER NEARBY LOCATIONS

CITY           SKY/WX    TMP DP  RH WIND       PRES   REMARKS
HARRISBURG     MOSUNNY   70  66  87 CALM      30.06R FOG
STATE COLLEGE  SUNNY     64  63  94 CALM      30.08S
WILLIAMSPORT   PTSUNNY   65  60  84 CALM      30.05R
BINGHAMTON     CLOUDY    66  61  84 S6        30.07R
NEW YORK CITY  CLOUDY    75  61  61 CALM      30.08F
BALTIMORE      PTSUNNY   70  64  81 CALM      30.08R
WASHINGTON DC  PTSUNNY   72  65  78 SW3       30.09R

$$





    US Dept of Commerce
    National Oceanic and Atmospheric Administration
    National Weather Service
    1325 East West Highway
    Silver Spring, MD 20910
    Page Author: NWS Internet Services Team
Disclaimer
Information Quality
Credits
Glossary
Privacy Policy
Freedom of Information Act (FOIA)
About Us
Career Opportunities